Flag for Japan Weather past 2 weeks in Hamamatsu, Japan

Now
53 °F

Cool.


Feels Like: 48 °F
Forecast: 47 / 62 °F
Wind: 16 mph from East

Location: Omaezaki

Current Time: Apr 2, 2015 at 8:28:34 AM

Latest Report: Apr 2, 2015 at 7:00 AM


Visibility: 13 mi

Pressure: 30.08 "Hg

Humidity: 81%

Dew point: 47 °F

Location of HamamatsuLocation

Historic Weather in Hamamatsu — Graph

°F

Hamamatsu temperature yesterday

Maximum temperature yesterday: 61 °F (at 11:00 AM)
Minimum temperature yesterday: 58 °F (at 12:00 AM)
Average temperature yesterday: 60 °F

Past Weeks' High & Low Weather Summary

 TemperatureHumidityPressure
High65 °F (Mar 31, 1:00 PM)100% (Mar 18, 9:00 PM)30.46 "Hg (Mar 18, 9:00 PM)
Low36 °F (Mar 26, 5:00 AM)22% (Mar 23, 9:00 AM)29.66 "Hg (Mar 19, 3:00 PM)
Average54 °F69%30.06 "Hg
* Reported Mar 18 7:00 AM — Apr 2 7:00 AM, Hamamatsu, Weather by CustomWeather, © 2015

Note: Actual official high and low records may vary slightly from our data, if they occured in-between our weather recording intervals... More about our weather records

Advertising

Hamamatsu weather history for previous 24 hours

 ConditionsComfort  
Time TempWeatherWind HumidityBarometerVisibility
7:00 AM
Thu, Apr 2
53 °FCool.16 mph81%30.08 "Hg12 mi
5:00 AM54 °FCool.15 mph85%30.01 "Hg12 mi
4:00 AM55 °FCool.15 mph84%29.96 "Hg12 mi
3:00 AM55 °FCool.10 mph83%29.95 "Hg12 mi
2:00 AM55 °FCool.9 mph80%29.93 "Hg12 mi
1:00 AM56 °FCool.6 mph82%29.90 "Hg12 mi
12:00 AM58 °FCool.20 mph82%29.84 "Hg8 mi
11:00 PM
Wed, Apr 1
58 °FCool.22 mph88%29.83 "Hg7 mi
10:00 PM61 °FCool.16 mph83%29.81 "Hg12 mi
9:00 PM60 °FFog.14 mph93%29.80 "Hg2 mi
8:00 PM61 °FFog.16 mph91%29.80 "Hg2 mi
7:00 PM60 °FFog.10 mph95%29.78 "Hg2 mi
6:00 PM60 °FFog.10 mph97%29.78 "Hg2 mi
5:00 PM60 °FFog.10 mph98%29.77 "Hg1 mi
4:00 PM60 °FCool.10 mph97%29.78 "Hg2 mi
3:00 PM59 °FLight rain. Cloudy.10 mph98%29.80 "Hg1 mi
2:00 PM60 °FLight rain. Cloudy.9 mph98%29.83 "Hg1 mi
1:00 PM60 °FLight rain. Cloudy.10 mph98%29.85 "Hg1 mi
12:00 PM61 °FLight rain. Cloudy.9 mph94%29.88 "Hg2 mi
11:00 AM61 °FCool.12 mph90%29.91 "Hg4 mi
10:00 AM60 °FLight rain. Cloudy.15 mph88%29.93 "Hg4 mi
9:00 AM60 °FLight rain. Cloudy.16 mph94%29.95 "Hg2 mi
8:00 AM60 °FLight rain. Cloudy.15 mph94%29.96 "Hg3 mi
Weather by CustomWeather, © 2015

See weather overviewHow to use our weather pages